Total_Precipitation_Accumulation
0.20 0.06 0.02 0.02 0.04 0.08 0.08 0.09 0.10 0.11 0.12 0.11 0.10 0.09 0.09 0.10 0.10 0.09 0.08 0.08 0.12 0.21 0.29 0.32 0.34 0.39 0.40 0.39 0.33 0.24 0.19 0.14 0.12 0.11 0.12 0.14 0.17 0.21 0.22 0.18 0.19 0.13 0.08
0.19 0.04 0.02 0.02 0.04 0.06 0.07 0.10 0.11 0.10 0.11 0.10 0.09 0.09 0.09 0.09 0.10 0.12 0.10 0.11 0.16 0.23 0.25 0.28 0.30 0.32 0.31 0.28 0.22 0.16 0.11 0.10 0.12 0.15 0.19 0.24 0.36 0.38 0.35 0.29 0.32 0.21 0.08
0.08 0.02 0.01 0.02 0.03 0.04 0.07 0.09 0.11 0.11 0.12 0.11 0.12 0.11 0.11 0.11 0.11 0.13 0.13 0.14 0.20 0.23 0.21 0.21 0.24 0.24 0.21 0.15 0.12 0.09 0.09 0.11 0.18 0.27 0.50 0.59 0.61 0.49 0.36 0.31 0.29 0.20 0.11
0.05 0.02 0.01 0.02 0.03 0.03 0.04 0.06 0.09 0.12 0.15 0.16 0.17 0.14 0.11 0.12 0.12 0.12 0.13 0.15 0.18 0.19 0.17 0.16 0.16 0.14 0.11 0.09 0.09 0.09 0.10 0.15 0.29 0.53 0.96 0.82 0.86 0.70 0.44 0.32 0.30 0.27 0.25
0.05 0.04 0.02 0.02 0.02 0.03 0.03 0.05 0.10 0.14 0.14 0.17 0.18 0.17 0.13 0.11 0.11 0.13 0.17 0.21 0.22 0.22 0.23 0.23 0.18 0.12 0.08 0.08 0.09 0.11 0.13 0.20 0.38 0.71 1.07 1.21 1.22 0.96 0.57 0.39 0.36 0.38 0.40
0.04 0.02 0.02 0.03 0.03 0.04 0.04 0.05 0.10 0.16 0.17 0.17 0.17 0.18 0.17 0.14 0.12 0.16 0.24 0.27 0.27 0.26 0.31 0.36 0.29 0.19 0.12 0.09 0.09 0.12 0.17 0.28 0.43 0.75 1.27 1.57 1.30 0.94 0.59 0.43 0.36 0.44 0.52
0.07 0.04 0.05 0.06 0.06 0.06 0.06 0.09 0.13 0.18 0.21 0.23 0.21 0.21 0.22 0.16 0.13 0.18 0.27 0.31 0.31 0.30 0.30 0.27 0.20 0.16 0.13 0.11 0.12 0.14 0.19 0.31 0.46 0.78 1.18 1.45 1.19 0.78 0.55 0.47 0.42 0.44 0.47
0.19 0.09 0.09 0.10 0.10 0.10 0.13 0.16 0.19 0.18 0.21 0.22 0.23 0.24 0.23 0.16 0.14 0.18 0.26 0.33 0.39 0.34 0.26 0.19 0.14 0.11 0.11 0.11 0.12 0.14 0.20 0.28 0.34 0.63 0.99 1.09 0.91 0.65 0.51 0.47 0.47 0.43 0.41
0.33 0.22 0.18 0.15 0.13 0.14 0.17 0.18 0.20 0.21 0.23 0.23 0.21 0.22 0.21 0.18 0.16 0.19 0.25 0.31 0.29 0.22 0.18 0.15 0.13 0.10 0.07 0.06 0.06 0.10 0.18 0.25 0.34 0.58 0.85 0.97 0.82 0.63 0.50 0.41 0.36 0.35 0.34
0.73 0.80 0.55 0.26 0.19 0.16 0.16 0.23 0.28 0.30 0.30 0.27 0.23 0.20 0.18 0.17 0.18 0.22 0.23 0.22 0.18 0.12 0.08 0.08 0.07 0.06 0.05 0.04 0.05 0.09 0.14 0.16 0.25 0.49 0.78 0.86 0.80 0.63 0.55 0.43 0.36 0.30 0.28
1.06 1.22 0.70 0.40 0.32 0.30 0.28 0.25 0.30 0.34 0.35 0.31 0.27 0.28 0.26 0.28 0.35 0.36 0.27 0.25 0.18 0.13 0.10 0.09 0.08 0.07 0.06 0.05 0.07 0.09 0.11 0.14 0.40 0.54 0.68 0.77 0.79 0.72 0.64 0.54 0.43 0.36 0.31
1.12 0.99 0.90 0.68 0.48 0.44 0.41 0.44 0.44 0.41 0.42 0.36 0.46 0.40 0.46 0.75 0.84 0.67 0.61 0.48 0.33 0.23 0.19 0.18 0.16 0.13 0.09 0.09 0.11 0.11 0.13 0.21 0.40 0.61 0.63 0.59 0.65 0.69 0.69 0.62 0.50 0.44 0.39
1.67 1.20 1.07 0.94 0.77 0.69 0.75 0.78 0.74 0.72 0.75 0.70 0.83 0.72 0.81 0.93 0.87 0.84 0.84 0.70 0.61 0.50 0.46 0.45 0.33 0.26 0.22 0.24 0.25 0.22 0.23 0.28 0.38 0.62 0.61 0.62 0.65 0.74 0.79 0.70 0.59 0.54 0.52
1.87 1.63 1.20 1.14 1.11 1.20 1.27 1.18 1.06 1.13 1.14 1.08 1.15 1.00 1.08 1.22 1.21 1.09 1.13 1.06 1.02 0.91 0.88 0.75 0.62 0.50 0.45 0.40 0.38 0.38 0.39 0.40 0.43 0.59 0.68 0.71 0.72 0.82 0.89 0.88 0.77 0.70 0.65
1.83 1.62 1.46 1.52 1.49 1.49 1.54 1.66 1.55 1.45 1.60 1.60 1.60 1.40 1.41 1.38 1.33 1.32 1.27 1.26 1.24 1.29 1.26 1.16 0.99 0.82 0.67 0.57 0.49 0.50 0.52 0.52 0.61 0.67 0.85 0.83 0.73 0.84 1.00 1.09 1.04 0.99 0.90
1.72 1.62 1.55 1.72 1.67 1.64 1.73 1.89 1.84 1.73 1.89 2.08 2.19 2.08 1.84 1.70 1.61 1.54 1.59 1.62 1.47 1.47 1.53 1.51 1.34 1.15 0.92 0.78 0.71 0.67 0.65 0.61 0.70 0.78 0.92 0.98 0.91 0.89 1.04 1.20 1.27 1.24 1.15
1.74 1.64 1.64 1.59 1.73 1.82 1.94 2.01 1.96 1.98 2.12 2.28 2.35 2.39 2.13 1.86 1.86 1.79 1.83 1.85 1.63 1.57 1.71 1.78 1.64 1.45 1.18 0.99 0.97 0.93 0.88 0.89 0.90 0.96 1.07 1.15 1.14 1.05 1.10 1.10 1.14 1.17 1.18
1.76 1.96 1.90 1.58 1.76 1.92 2.00 2.06 1.97 2.08 2.30 2.44 2.39 2.48 2.37 2.07 1.99 2.03 1.98 1.89 1.81 1.83 1.98 2.11 1.94 1.79 1.61 1.43 1.33 1.16 1.06 1.05 1.02 1.10 1.11 1.17 1.40 1.36 1.20 1.03 1.02 1.07 1.11
2.01 2.36 2.11 1.76 1.86 1.96 2.09 2.20 2.16 2.23 2.53 2.74 2.78 2.64 2.39 2.21 2.20 2.29 2.29 2.27 2.23 2.22 2.23 2.15 2.19 2.04 2.05 1.92 1.61 1.39 1.25 1.20 1.23 1.20 1.21 1.26 1.35 1.43 1.35 1.17 1.05 1.03 1.01
2.34 2.84 2.46 1.98 2.00 2.17 2.15 2.16 2.35 2.55 2.84 3.09 3.01 2.81 2.66 2.66 2.63 2.67 2.62 2.65 2.67 2.71 2.53 2.43 2.38 2.17 2.07 2.00 1.74 1.58 1.46 1.35 1.27 1.22 1.16 1.16 1.19 1.17 1.19 1.16 1.13 1.02 0.95
2.41 2.68 2.65 2.43 2.43 2.56 2.63 2.47 2.64 2.95 3.27 3.52 3.45 3.37 3.33 3.28 3.21 3.19 3.17 3.08 2.94 2.86 2.71 2.52 2.35 2.23 2.08 1.90 1.83 1.62 1.38 1.21 1.09 1.01 1.02 1.02 0.98 0.96 0.98 1.06 1.10 1.04 0.96
2.37 2.40 2.57 2.69 2.72 2.61 2.88 3.10 3.38 3.71 3.89 4.16 4.41 4.48 4.36 4.12 3.88 3.72 3.58 3.31 2.97 2.80 2.70 2.52 2.32 2.17 1.99 1.82 1.75 1.70 1.43 1.20 0.95 0.82 0.81 0.80 0.83 0.86 0.85 0.83 0.90 0.87 0.80
2.23 2.43 2.58 2.84 2.95 2.92 3.31 3.81 4.28 4.59 4.63 4.68 4.74 4.82 4.77 4.36 3.99 3.71 3.40 3.16 2.91 2.73 2.59 2.49 2.34 2.21 2.01 1.82 1.68 1.72 1.61 1.41 1.11 0.92 0.80 0.74 0.74 0.78 0.80 0.74 0.72 0.70 0.66
1.98 2.20 2.37 2.72 3.10 3.43 3.84 4.37 4.91 5.20 5.37 5.29 4.97 4.73 4.44 4.04 3.66 3.23 2.99 2.94 2.74 2.53 2.37 2.19 2.02 1.94 1.86 1.75 1.65 1.51 1.40 1.32 1.22 1.08 0.97 0.90 0.83 0.82 0.83 0.80 0.79 0.74 0.69
1.69 1.93 2.21 2.51 2.94 3.56 4.27 4.89 5.35 5.67 5.63 5.22 4.74 4.17 3.75 3.42 3.12 2.85 2.62 2.62 2.52 2.27 2.03 1.78 1.58 1.51 1.49 1.50 1.46 1.40 1.32 1.20 1.03 0.92 0.93 0.92 0.92 0.89 0.84 0.81 0.78 0.76 0.70
1.34 1.61 1.97 2.40 2.74 3.30 3.95 4.56 4.95 5.22 5.14 4.74 4.13 3.59 3.21 2.86 2.57 2.33 2.07 1.91 1.79 1.61 1.48 1.36 1.24 1.20 1.18 1.22 1.24 1.18 1.14 1.10 1.03 0.96 0.92 0.89 0.93 1.00 0.91 0.81 0.72 0.64 0.60